User: anonymous   Login
Location: Unspecified
(0.0000°N, 0.0000°E)
Time: 23:59:31
(UTC+00:00)
Language:

Max Valier Satellite - Orbit

View from above orbital plane
View from above orbital plane
View from above satellite
View from above satellite

Ground track
Ground track

The orbit data is extracted from the following two-line orbital elements,

1 42778U 17036P   19048.21999113  .00000709  00000-0  34279-4 0  9997
2 42778  97.3717 108.4696 0010878 293.4274  66.5818 15.21769241 91768
Epoch (UTC): 17 February 2019 05:16:47
Eccentricity: 0.0010878
inclination: 97.3717°
perigee height: 493 km
apogee height: 508 km
right ascension of ascending node: 108.4696°
argument of perigee: 293.4274°
revolutions per day: 15.21769241
mean anomaly at epoch: 66.5818°
orbit number at epoch: 9176

The dashed part of the orbit path shows where the satellite is in the earth's shadow,  

DLR